• In Schweiz
  • Länderverzeichnis
  • Für 7 Tage
  • Wassertemperatur
  • Satellitenkarten
  • Wetterkarte
  • Widgets
  • user-avatar
    Anmelden

    Stündliche Wetter Krasnodvorsk

    Heute, 24 September, Montag

    Zeit Temperatur Niederschläge Wind Luftdruck Luftfeuchtigkeit
    00:00 +17°C° 0 mm 4 m/S 762 mmHg 69%
    01:00 +15°C° 0 mm 4 m/S 763 mmHg 71%
    02:00 +14°C° 0 mm 3 m/S 763 mmHg 72%
    03:00 +13°C° 0 mm 3 m/S 763 mmHg 74%
    04:00 +14°C° 0 mm 2 m/S 763 mmHg 75%
    05:00 +13°C° 0 mm 2 m/S 764 mmHg 76%
    06:00 +12°C° 0 mm 1 m/S 764 mmHg 77%
    07:00 +14°C° 0 mm 1 m/S 764 mmHg 70%
    08:00 +15°C° 0 mm 1 m/S 764 mmHg 62%
    09:00 +16°C° 0 mm 1 m/S 764 mmHg 55%
    10:00 +18°C° 0 mm 2 m/S 764 mmHg 48%
    11:00 +19°C° 0 mm 2 m/S 763 mmHg 41%
    12:00 +21°C° 0 mm 3 m/S 763 mmHg 34%
    13:00 +22°C° 0 mm 3 m/S 762 mmHg 31%
    14:00 +24°C° 0 mm 3 m/S 762 mmHg 29%
    15:00 +25°C° 0 mm 3 m/S 761 mmHg 27%
    16:00 +24°C° 0 mm 3 m/S 761 mmHg 32%
    17:00 +24°C° 0 mm 3 m/S 760 mmHg 37%
    18:00 +22°C° 0 mm 3 m/S 760 mmHg 43%
    19:00 +22°C° 0 mm 3 m/S 759 mmHg 50%
    20:00 +21°C° 0 mm 3 m/S 759 mmHg 56%
    21:00 +21°C° 0 mm 3 m/S 759 mmHg 63%
    22:00 +21°C° 0 mm 4 m/S 758 mmHg 67%
    23:00 +21°C° 0 mm 4 m/S 758 mmHg 71%

    Morgen, 25 September, Dienstag

    Zeit Temperatur Niederschläge Wind Luftdruck Luftfeuchtigkeit
    00:00 +21°C° 0 mm 4 m/S 758 mmHg 75%
    01:00 +20°C° 0 mm 4 m/S 757 mmHg 77%
    02:00 +20°C° 0 mm 4 m/S 757 mmHg 79%
    03:00 +20°C° 0 mm 5 m/S 757 mmHg 82%
    04:00 +20°C° 0.1 mm 5 m/S 757 mmHg 83%
    05:00 +20°C° 0.1 mm 5 m/S 757 mmHg 83%
    06:00 +20°C° 0.1 mm 5 m/S 757 mmHg 84%
    07:00 +19°C° 0.3 mm 5 m/S 757 mmHg 82%
    08:00 +16°C° 0.3 mm 6 m/S 758 mmHg 79%
    09:00 +15°C° 0.3 mm 6 m/S 758 mmHg 76%
    10:00 +15°C° 0.7 mm 6 m/S 759 mmHg 75%
    11:00 +14°C° 0.7 mm 5 m/S 759 mmHg 74%
    12:00 +14°C° 0.7 mm 5 m/S 760 mmHg 72%
    13:00 +14°C° 0.3 mm 4 m/S 760 mmHg 71%
    14:00 +14°C° 0.3 mm 4 m/S 761 mmHg 70%
    15:00 +14°C° 0.3 mm 4 m/S 761 mmHg 69%
    16:00 +14°C° 0.1 mm 4 m/S 761 mmHg 68%
    17:00 +14°C° 0.1 mm 4 m/S 762 mmHg 67%
    18:00 +14°C° 0.1 mm 4 m/S 762 mmHg 65%
    19:00 +14°C° 0 mm 4 m/S 763 mmHg 64%
    20:00 +14°C° 0 mm 4 m/S 763 mmHg 63%
    21:00 +14°C° 0 mm 4 m/S 764 mmHg 62%
    22:00 +13°C° 0 mm 4 m/S 764 mmHg 62%
    23:00 +12°C° 0 mm 3 m/S 764 mmHg 63%

    übermorgen, 26 September, Mittwoch

    Zeit Temperatur Niederschläge Wind Luftdruck Luftfeuchtigkeit
    00:00 +11°C° 0 mm 3 m/S 765 mmHg 64%
    01:00 +11°C° 0 mm 3 m/S 765 mmHg 66%
    02:00 +10°C° 0 mm 3 m/S 765 mmHg 69%
    03:00 +10°C° 0 mm 3 m/S 766 mmHg 71%
    04:00 +10°C° 0 mm 3 m/S 766 mmHg 73%
    05:00 +9°C° 0 mm 2 m/S 767 mmHg 76%
    06:00 +9°C° 0 mm 2 m/S 767 mmHg 79%
    07:00 +10°C° 0 mm 3 m/S 768 mmHg 74%
    08:00 +11°C° 0 mm 3 m/S 768 mmHg 69%
    09:00 +13°C° 0 mm 3 m/S 769 mmHg 64%
    10:00 +14°C° 0 mm 3 m/S 769 mmHg 59%
    11:00 +16°C° 0 mm 3 m/S 769 mmHg 53%
    12:00 +16°C° 0 mm 3 m/S 769 mmHg 48%
    13:00 +17°C° 0.1 mm 3 m/S 769 mmHg 46%
    14:00 +17°C° 0.1 mm 3 m/S 769 mmHg 45%
    15:00 +17°C° 0.1 mm 3 m/S 769 mmHg 44%
    16:00 +16°C° 0.1 mm 2 m/S 769 mmHg 45%
    17:00 +16°C° 0.1 mm 2 m/S 769 mmHg 47%
    18:00 +15°C° 0.1 mm 2 m/S 769 mmHg 49%
    19:00 +15°C° 0 mm 2 m/S 770 mmHg 50%
    20:00 +15°C° 0 mm 2 m/S 770 mmHg 51%
    21:00 +14°C° 0 mm 2 m/S 770 mmHg 52%
    22:00 +14°C° 0 mm 2 m/S 770 mmHg 53%
    23:00 +13°C° 0 mm 2 m/S 770 mmHg 53%

    27 September, Donnerstag

    Zeit Temperatur Niederschläge Wind Luftdruck Luftfeuchtigkeit
    00:00 +11°C° 0 mm 3 m/S 770 mmHg 54%
    01:00 +11°C° 0 mm 3 m/S 770 mmHg 55%
    02:00 +10°C° 0 mm 3 m/S 771 mmHg 56%
    03:00 +10°C° 0 mm 3 m/S 771 mmHg 57%
    04:00 +9°C° 0 mm 2 m/S 771 mmHg 58%
    05:00 +9°C° 0 mm 2 m/S 771 mmHg 59%
    06:00 +9°C° 0 mm 2 m/S 771 mmHg 60%
    07:00 +10°C° 0 mm 2 m/S 771 mmHg 55%
    08:00 +12°C° 0 mm 1 m/S 771 mmHg 50%
    09:00 +14°C° 0 mm 1 m/S 771 mmHg 45%
    10:00 +15°C° 0 mm 2 m/S 771 mmHg 41%
    11:00 +16°C° 0 mm 3 m/S 770 mmHg 37%
    12:00 +17°C° 0 mm 3 m/S 770 mmHg 33%
    13:00 +18°C° 0 mm 4 m/S 770 mmHg 32%
    14:00 +18°C° 0 mm 4 m/S 769 mmHg 31%
    15:00 +17°C° 0 mm 5 m/S 769 mmHg 29%
    16:00 +17°C° 0 mm 4 m/S 769 mmHg 32%
    17:00 +15°C° 0 mm 4 m/S 769 mmHg 34%
    18:00 +14°C° 0 mm 3 m/S 769 mmHg 36%
    19:00 +14°C° 0 mm 3 m/S 769 mmHg 39%
    20:00 +13°C° 0 mm 3 m/S 769 mmHg 41%
    21:00 +12°C° 0 mm 3 m/S 769 mmHg 44%
    22:00 +12°C° 0 mm 3 m/S 769 mmHg 45%
    23:00 +13°C° 0 mm 2 m/S 769 mmHg 46%

    28 September, Freitag

    Zeit Temperatur Niederschläge Wind Luftdruck Luftfeuchtigkeit
    00:00 +12°C° 0 mm 2 m/S 769 mmHg 47%
    01:00 +12°C° 0 mm 2 m/S 768 mmHg 47%
    02:00 +12°C° 0 mm 2 m/S 768 mmHg 47%
    03:00 +10°C° 0 mm 2 m/S 768 mmHg 47%
    04:00 +10°C° 0 mm 2 m/S 768 mmHg 47%
    05:00 +10°C° 0 mm 2 m/S 767 mmHg 48%
    06:00 +10°C° 0 mm 2 m/S 767 mmHg 48%
    07:00 +13°C° 0 mm 2 m/S 767 mmHg 45%
    08:00 +13°C° 0 mm 3 m/S 767 mmHg 41%
    09:00 +16°C° 0 mm 3 m/S 767 mmHg 38%
    10:00 +17°C° 0 mm 3 m/S 767 mmHg 34%
    11:00 +19°C° 0 mm 4 m/S 766 mmHg 31%
    12:00 +20°C° 0 mm 4 m/S 766 mmHg 28%
    13:00 +21°C° 0 mm 4 m/S 765 mmHg 28%
    14:00 +21°C° 0 mm 4 m/S 765 mmHg 28%
    15:00 +22°C° 0 mm 4 m/S 765 mmHg 27%
    16:00 +21°C° 0 mm 4 m/S 764 mmHg 31%
    17:00 +19°C° 0 mm 3 m/S 764 mmHg 34%
    18:00 +18°C° 0 mm 3 m/S 764 mmHg 37%
    19:00 +18°C° 0 mm 2 m/S 764 mmHg 40%
    20:00 +17°C° 0 mm 2 m/S 764 mmHg 43%
    21:00 +16°C° 0 mm 2 m/S 765 mmHg 46%
    22:00 +16°C° 0 mm 2 m/S 765 mmHg 48%
    23:00 +15°C° 0 mm 2 m/S 764 mmHg 50%

    29 September, Samstag

    Zeit Temperatur Niederschläge Wind Luftdruck Luftfeuchtigkeit
    00:00 +15°C° 0 mm 1 m/S 764 mmHg 52%
    01:00 +15°C° 0 mm 1 m/S 764 mmHg 54%
    02:00 +14°C° 0 mm 1 m/S 764 mmHg 56%
    03:00 +14°C° 0 mm 1 m/S 764 mmHg 58%
    04:00 +14°C° 0 mm 1 m/S 764 mmHg 59%
    05:00 +13°C° 0 mm 0 m/S 764 mmHg 60%
    06:00 +12°C° 0 mm 0 m/S 764 mmHg 62%
    07:00 +15°C° 0 mm 1 m/S 764 mmHg 56%
    08:00 +18°C° 0 mm 1 m/S 764 mmHg 51%
    09:00 +19°C° 0 mm 1 m/S 764 mmHg 46%
    10:00 +21°C° 0 mm 1 m/S 764 mmHg 42%
    11:00 +23°C° 0 mm 1 m/S 763 mmHg 37%
    12:00 +24°C° 0 mm 1 m/S 763 mmHg 33%
    13:00 +25°C° 0 mm 2 m/S 762 mmHg 32%
    14:00 +26°C° 0 mm 2 m/S 762 mmHg 30%
    15:00 +26°C° 0 mm 2 m/S 761 mmHg 29%
    16:00 +25°C° 0 mm 2 m/S 761 mmHg 30%
    17:00 +24°C° 0 mm 2 m/S 761 mmHg 32%
    18:00 +24°C° 0 mm 2 m/S 761 mmHg 33%
    19:00 +23°C° 0 mm 2 m/S 761 mmHg 35%
    20:00 +21°C° 0 mm 2 m/S 761 mmHg 36%
    21:00 +21°C° 0 mm 2 m/S 761 mmHg 37%
    22:00 +20°C° 0 mm 2 m/S 761 mmHg 39%
    23:00 +20°C° 0 mm 2 m/S 761 mmHg 42%
    Mehr zeigen

    3.3.7123123